Weather History for Fargo, ND

Change the Weather History Date:

Friday, October 5, 2012

  Actual Average Record
Temperature  
Mean Temperature 36 °F 50 °F  
Max Temperature 42 °F 62 °F 93 °F (1963)
Min Temperature 30 °F 39 °F 18 °F (1885)
Degree Days  
Heating Degree Days 29 15  
Month to date heating degree days 85 69  
Since 1 July heating degree days 315 339  
Cooling Degree Days 0 0  
Month to date cooling degree days 0 0  
Year to date cooling degree days 795 548  
Moisture  
Dew Point 28 °F    
Average Humidity 73    
Maximum Humidity 89    
Minimum Humidity 57    
Precipitation  
Precipitation 0.03 in 0.09 in 2.39 in (1884)
Month to date precipitation 0.38 0.42  
Year to date precipitation 11.72 19.05  
Snow  
Snow T in 0.00 in T in (2012)
Month to date snowfall 1.4 0.0  
Since 1 July snowfall 1.4 0.0  
Since 1 September snowfall 1.4 0.0  
Snow Depth T in    
Sea Level Pressure  
Sea Level Pressure 30.24 in    
Wind  
Wind Speed 18 mph (NW)    
Max Wind Speed 27 mph    
Max Gust Speed 37 mph    
Visibility 8 miles    
Events Rain , Snow    
T = Trace of Precipitation, MM = Missing Value Source: NWS Daily Summary

Daily Weather History Graph

Daily Weather History Graph

Search for Another Location

Airport:

Trip Planner

Search our weather history database for the weather conditions in past years. The results will help you decide how hot, cold, wet, or windy it might be!

Date:

Astronomy

Oct. 05, 2012 Rise Set
Actual Time 7:32 AM CDT 6:58 PM CDT
Civil Twilight 7:01 AM CDT 7:28 PM CDT
Nautical Twilight 6:26 AM CDT 8:03 PM CDT
Astronomical Twilight 5:50 AM CDT 8:38 PM CDT
Moon 10:04 PM CDT (10/5) 12:58 PM CDT (10/5)
Length of Visible Light 12h 26m
Length of Day
11h 25m
Waning Gibbous, 74% of the Moon is Illuminated
Oct 5
Waning Gibbous
Oct 8
Last Quarter
Oct 15
New
Oct 21
First Quarter
Oct 29
Full

Hourly Weather History & Observations

Time (CDT) Temp. Windchill Dew Point Humidity Pressure Visibility Wind Dir Wind Speed Gust Speed Precip Events Conditions
12:53 AM 34.0 °F 25.0 °F 26.1 °F 73% 30.22 in 10.0 mi WNW 12.7 mph - N/A   Clear
1:53 AM 33.1 °F 24.4 °F 26.1 °F 75% 30.22 in 10.0 mi West 11.5 mph - N/A   Partly Cloudy
2:53 AM 30.2 °F 21.3 °F 24.8 °F 80% 30.18 in 10.0 mi West 10.4 mph - N/A   Clear
3:53 AM 32.0 °F 21.2 °F 26.1 °F 79% 30.21 in 10.0 mi WNW 16.1 mph - N/A   Clear
4:53 AM 30.9 °F 19.4 °F 25.0 °F 79% 30.20 in 10.0 mi WNW 17.3 mph - N/A   Clear
5:53 AM 30.9 °F 19.8 °F 25.0 °F 79% 30.20 in 10.0 mi WNW 16.1 mph - N/A   Clear
6:53 AM 30.9 °F 20.2 °F 24.1 °F 76% 30.21 in 10.0 mi WNW 15.0 mph - N/A   Clear
7:53 AM 30.0 °F 18.3 °F 24.1 °F 79% 30.22 in 10.0 mi West 17.3 mph - N/A   Clear
8:53 AM 32.0 °F 20.1 °F 25.0 °F 75% 30.22 in 10.0 mi WNW 19.6 mph - N/A   Clear
9:15 AM 33.8 °F 22.2 °F 24.8 °F 70% 30.19 in 10.0 mi WNW 20.7 mph 26.5 mph N/A   Mostly Cloudy
9:53 AM 36.0 °F 26.0 °F 26.1 °F 67% 30.23 in 10.0 mi WNW 17.3 mph 25.3 mph N/A   Mostly Cloudy
10:16 AM 35.6 °F 25.2 °F 26.6 °F 70% 30.20 in 10.0 mi NW 18.4 mph 27.6 mph N/A   Overcast
10:42 AM 37.4 °F 26.6 °F 26.6 °F 65% 30.20 in 10.0 mi NW 21.9 mph 31.1 mph N/A   Overcast
10:53 AM 37.9 °F 27.3 °F 27.0 °F 65% 30.24 in 10.0 mi NW 21.9 mph 28.8 mph N/A   Overcast
11:53 AM 39.9 °F 29.0 °F 27.0 °F 60% 30.24 in 10.0 mi NW 26.5 mph 34.5 mph 0.00 in   Overcast
12:53 PM 41.0 °F 31.4 °F 28.0 °F 60% 30.24 in 10.0 mi NW 21.9 mph 33.4 mph N/A   Overcast
1:32 PM 41.0 °F 30.9 °F 28.4 °F 61% 30.20 in 10.0 mi NW 24.2 mph 33.4 mph N/A   Mostly Cloudy
1:53 PM 42.1 °F 31.9 °F 28.9 °F 60% 30.23 in 10.0 mi WNW 26.5 mph 33.4 mph N/A   Overcast
2:53 PM 39.9 °F 29.7 °F 28.0 °F 63% 30.23 in 10.0 mi NW 23.0 mph 33.4 mph N/A   Overcast
3:53 PM 41.0 °F 31.4 °F 28.0 °F 60% 30.23 in 10.0 mi NW 21.9 mph 27.6 mph 0.00 in Rain Light Rain
4:24 PM 37.4 °F 26.4 °F 30.2 °F 75% 30.21 in 10.0 mi NNW 23.0 mph 29.9 mph 0.00 in   Overcast
4:53 PM 35.1 °F 23.5 °F 30.9 °F 85% 30.26 in 2.5 mi NNW 21.9 mph - 0.00 in Snow Light Snow
5:02 PM 35.6 °F 25.5 °F 32.0 °F 87% 30.22 in 3.0 mi North 17.3 mph - 0.00 in Snow Light Snow
5:22 PM 37.4 °F 27.2 °F 32.0 °F 81% 30.22 in 10.0 mi NNW 19.6 mph - 0.01 in Rain Light Rain
5:43 PM 35.6 °F 24.8 °F 30.2 °F 81% 30.23 in 2.0 mi NNW 19.6 mph 27.6 mph 0.01 in Snow Light Snow
5:53 PM 35.1 °F 25.5 °F 32.0 °F 89% 30.27 in 6.0 mi NW 15.0 mph - 0.01 in Snow Light Snow
6:53 PM 37.0 °F 26.2 °F 30.9 °F 79% 30.27 in 7.0 mi North 21.9 mph 33.4 mph 0.00 in   Overcast
6:58 PM 35.6 °F 24.5 °F 30.2 °F 81% 30.24 in 1.8 mi NNW 20.7 mph 33.4 mph 0.00 in Snow Light Snow
7:06 PM 33.8 °F 23.2 °F 30.2 °F 87% 30.24 in 3.0 mi NNW 17.3 mph - 0.01 in Snow Light Snow
7:43 PM 35.6 °F 25.5 °F 30.2 °F 81% 30.25 in 10.0 mi NW 17.3 mph - 0.01 in   Overcast
7:53 PM 35.1 °F 25.9 °F 30.9 °F 85% 30.29 in 10.0 mi NW 13.8 mph - 0.01 in   Overcast
8:35 PM 33.8 °F 24.3 °F 30.2 °F 87% 30.26 in 6.0 mi NW 13.8 mph - 0.00 in Snow Light Snow
8:42 PM 35.6 °F 25.5 °F 30.2 °F 81% 30.26 in 7.0 mi NW 17.3 mph 21.9 mph 0.00 in Snow Light Snow
8:53 PM 35.1 °F 25.2 °F 30.9 °F 85% 30.30 in 8.0 mi NW 16.1 mph - 0.00 in Snow Light Snow
9:08 PM 35.6 °F 24.8 °F 32.0 °F 87% 30.27 in 7.0 mi NNW 19.6 mph 27.6 mph 0.00 in Snow Light Snow
9:53 PM 35.1 °F 25.9 °F 30.9 °F 85% 30.31 in 10.0 mi NNW 13.8 mph - 0.01 in   Overcast
10:17 PM 35.6 °F 26.2 °F 30.2 °F 81% 30.28 in 10.0 mi NNW 15.0 mph - N/A   Overcast
10:53 PM 34.0 °F 23.8 °F 30.9 °F 89% 30.31 in 9.0 mi NNW 16.1 mph - 0.00 in Snow Light Snow
11:01 PM 33.8 °F 23.2 °F 30.2 °F 87% 30.28 in 7.0 mi NNW 17.3 mph - 0.00 in Snow Light Snow
11:16 PM 33.8 °F 23.9 °F 30.2 °F 87% 30.28 in 6.0 mi NNW 15.0 mph - 0.00 in Snow Light Snow
11:26 PM 33.8 °F 23.9 °F 30.2 °F 87% 30.28 in 7.0 mi NNW 15.0 mph - 0.00 in Snow Light Snow
11:53 PM 34.0 °F 24.6 °F 30.9 °F 89% 30.32 in 4.0 mi NNW 13.8 mph - 0.00 in Snow Light Snow
11:57 PM 33.8 °F 23.9 °F 30.2 °F 87% 30.28 in 5.0 mi NNW 15.0 mph - 0.00 in Snow Light Snow